Weather History for Laredo, TX

Change the Weather History Date:

Monday, January 14, 2013

  Actual Average Record
Temperature  
Mean Temperature 49 °F 56 °F  
Max Temperature 56 °F 67 °F 86 °F (1932)
Min Temperature 41 °F 46 °F 19 °F (1975)
Degree Days  
Heating Degree Days 16 10  
Month to date heating degree days 149 140  
Since 1 July heating degree days 351 530  
Cooling Degree Days 0 1  
Month to date cooling degree days 3 14  
Year to date cooling degree days 3 14  
Moisture  
Dew Point 32 °F    
Average Humidity 53    
Maximum Humidity 65    
Minimum Humidity 41    
Precipitation  
Precipitation 0.00 in 0.03 in 1.40 in (1902)
Month to date precipitation 0.44 0.41  
Year to date precipitation 0.44 0.41  
Sea Level Pressure  
Sea Level Pressure 30.13 in    
Wind  
Wind Speed 10 mph (NE)    
Max Wind Speed 17 mph    
Max Gust Speed 22 mph    
Visibility 10 miles    
Events      
T = Trace of Precipitation, MM = Missing Value Source: NWS Daily Summary

Daily Weather History Graph

Daily Weather History Graph

Search for Another Location

Airport:

Trip Planner

Search our weather history database for the weather conditions in past years. The results will help you decide how hot, cold, wet, or windy it might be!

Date:

Astronomy

Jan. 14, 2013 Rise Set
Actual Time 7:29 AM CST 6:04 PM CST
Civil Twilight 7:04 AM CST 6:29 PM CST
Nautical Twilight 6:35 AM CST 6:58 PM CST
Astronomical Twilight 6:07 AM CST 7:26 PM CST
Moon 9:24 AM CST (1/14) 9:28 PM CST (1/14)
Length of Visible Light 11h 25m
Length of Day
10h 35m
Waxing Crescent, 11% of the Moon is Illuminated
Jan 14
Waxing Crescent
Jan 18
First Quarter
Jan 26
Full
Feb 3
Last Quarter
Feb 10
New

Hourly Weather History & Observations

Time (CST) Temp. Windchill Dew Point Humidity Pressure Visibility Wind Dir Wind Speed Gust Speed Precip Events Conditions
12:56 AM 47.8 °F - 32.9 °F 56% 30.11 in 10.0 mi NE 12.7 mph - N/A   Clear
1:56 AM 45.9 °F 40.0 °F 32.0 °F 58% 30.11 in 10.0 mi NE 12.7 mph - N/A   Clear
2:56 AM 45.0 °F 38.5 °F 31.1 °F 58% 30.12 in 10.0 mi NE 13.8 mph - N/A   Clear
3:56 AM 43.9 °F 37.5 °F 30.0 °F 58% 30.12 in 10.0 mi NE 12.7 mph - N/A   Clear
4:56 AM 43.0 °F 38.2 °F 30.0 °F 60% 30.12 in 10.0 mi NE 8.1 mph - N/A   Clear
5:56 AM 43.0 °F 37.2 °F 30.0 °F 60% 30.13 in 10.0 mi NE 10.4 mph - N/A   Clear
6:56 AM 41.9 °F 36.3 °F 30.0 °F 63% 30.16 in 10.0 mi NE 9.2 mph - N/A   Clear
7:56 AM 41.0 °F 33.1 °F 27.1 °F 58% 30.17 in 10.0 mi NE 15.0 mph - N/A   Clear
8:56 AM 43.0 °F 36.8 °F 28.0 °F 56% 30.19 in 10.0 mi NE 11.5 mph - N/A   Clear
9:56 AM 43.9 °F 38.8 °F 28.0 °F 54% 30.22 in 10.0 mi NE 9.2 mph - N/A   Clear
10:56 AM 45.0 °F 40.6 °F 29.1 °F 54% 30.21 in 10.0 mi NE 8.1 mph - N/A   Clear
11:56 AM 46.9 °F - 30.0 °F 52% 30.18 in 10.0 mi Variable 5.8 mph - N/A   Clear
12:56 PM 48.9 °F - 31.1 °F 50% 30.14 in 10.0 mi Variable 4.6 mph - N/A   Clear
1:56 PM 52.9 °F - 32.0 °F 45% 30.09 in 10.0 mi North 9.2 mph - N/A   Clear
2:56 PM 55.4 °F - 32.0 °F 41% 30.10 in 10.0 mi Variable 4.6 mph - N/A   Clear
3:56 PM 55.9 °F - 32.9 °F 42% 30.08 in 10.0 mi NE 6.9 mph - N/A   Clear
4:56 PM 54.9 °F - 32.9 °F 43% 30.09 in 10.0 mi North 9.2 mph - N/A   Clear
5:56 PM 52.9 °F - 32.9 °F 47% 30.10 in 10.0 mi NNE 9.2 mph - N/A   Clear
6:56 PM 50.9 °F - 34.0 °F 52% 30.11 in 10.0 mi NE 6.9 mph - N/A   Clear
7:56 PM 50.0 °F - 34.0 °F 54% 30.11 in 10.0 mi NE 8.1 mph - N/A   Clear
8:56 PM 47.8 °F - 34.9 °F 61% 30.10 in 10.0 mi NE 6.9 mph - N/A   Clear
9:56 PM 46.9 °F - 34.9 °F 63% 30.09 in 10.0 mi ENE 5.8 mph - N/A   Clear
10:56 PM 45.9 °F 42.9 °F 34.9 °F 66% 30.09 in 10.0 mi NE 5.8 mph - N/A   Clear
11:56 PM 45.0 °F 41.8 °F 36.0 °F 71% 30.10 in 10.0 mi NNE 5.8 mph - N/A   Clear